Date String (YYYY-MM-DD hh:mm:ss) UTC,Instrument flags,Ambient pressure (hPa),Sample flow (lpm),Bypass flow (lpm),Sample temperature (°C),Ambient temperature (°C),ASC tube jacket temperature (°C),LED temperature (°C),Box temperature (°C),Sample RH (%),Span deviation,Mass concentration (μg/m³),Mass concentration (μg/m³),Mass concentration (μg/m³)
DateTimeUTC,F1_M11,P_M11,Q1_M11,Q2_M11,T1_M11,T2_M11,T3_M11,T4_M11,T5_M11,U1_M11,ZSPAN_M11,X0_M11,X2_M11,X1_M11
2021-10-27 04:00:00,,0818.9,5.00,0.00,26.6,25.7,00.0,35.9,28.2,17.3,0000.0,0007.80,0001.22,0000.35
2021-10-27 04:01:00,,0818.9,5.01,0.00,26.5,25.6,00.0,35.9,28.2,17.4,0000.0,0008.27,0001.23,0000.34
2021-10-27 04:02:00,,0818.9,4.99,0.00,26.5,25.6,00.0,35.8,28.2,17.4,0000.0,0008.31,0001.27,0000.34
2021-10-27 04:03:00,,0818.9,5.01,0.00,26.5,25.5,00.0,35.8,28.1,17.5,0000.0,0008.25,0001.30,0000.33
2021-10-27 04:04:00,,0818.9,4.99,0.00,26.4,25.5,00.0,35.8,28.1,17.5,0000.0,0008.19,0001.27,0000.32
2021-10-27 04:05:00,,0818.8,5.00,0.00,26.4,25.5,00.0,35.8,28.0,17.5,0000.0,0008.15,0001.24,0000.31
2021-10-27 04:06:00,,0818.9,5.01,0.00,26.4,25.4,00.0,35.7,28.0,17.6,0000.0,0008.32,0001.28,0000.31
2021-10-27 04:07:00,,0818.9,5.00,0.00,26.3,25.4,00.0,35.7,28.0,17.6,0000.0,0008.44,0001.22,0000.31
2021-10-27 04:08:00,,0818.9,4.99,0.00,26.3,25.4,00.0,35.7,28.0,17.7,0000.0,0008.17,0001.21,0000.31
2021-10-27 04:09:00,,0818.9,4.99,0.00,26.3,25.3,00.0,35.6,28.0,17.7,0000.0,0008.54,0001.26,0000.30
2021-10-27 04:10:00,,0818.9,5.00,0.00,26.2,25.3,00.0,35.6,27.9,17.7,0000.0,0008.06,0001.26,0000.30
2021-10-27 04:11:00,,0819.0,5.01,0.00,26.2,25.3,00.0,35.6,28.0,17.7,0000.0,0007.42,0001.23,0000.30
2021-10-27 04:12:00,,0818.9,5.00,0.00,26.2,25.4,00.0,35.6,27.9,17.7,0000.0,0006.65,0001.26,0000.30
2021-10-27 04:13:00,,0818.9,4.99,0.00,26.2,25.4,00.0,35.5,27.9,17.7,0000.0,0006.44,0001.25,0000.29
2021-10-27 04:14:00,,0819.0,5.00,0.00,26.2,25.3,00.0,35.5,27.9,17.8,0000.0,0007.36,0001.26,0000.28
2021-10-27 04:15:00,,0818.9,5.01,0.00,26.2,25.3,00.0,35.5,27.9,17.8,0000.0,0008.35,0001.30,0000.28
2021-10-27 04:16:00,,0818.9,5.01,0.00,26.1,25.3,00.0,35.5,27.8,17.8,0000.0,0008.94,0001.37,0000.27
2021-10-27 04:17:00,,0818.9,5.00,0.00,26.1,25.3,00.0,35.4,27.8,17.8,0000.0,0009.42,0001.40,0000.26
2021-10-27 04:18:00,,0818.9,4.99,0.00,26.1,25.2,00.0,35.4,27.8,17.8,0000.0,0010.18,0001.44,0000.26
2021-10-27 04:19:00,,0819.0,5.01,0.00,26.1,25.2,00.0,35.4,27.8,17.9,0000.0,0009.74,0001.45,0000.26
2021-10-27 04:20:00,,0819.0,5.00,0.00,26.0,25.2,00.0,35.4,27.7,17.9,0000.0,0009.26,0001.44,0000.25
2021-10-27 04:21:00,,0818.9,5.00,0.00,26.0,25.2,00.0,35.4,27.7,18.0,0000.0,0009.34,0001.44,0000.26
2021-10-27 04:22:00,,0818.9,5.00,0.00,26.0,25.2,00.0,35.3,27.7,18.0,0000.0,0010.25,0001.47,0000.25
2021-10-27 04:23:00,,0818.9,5.00,0.00,26.0,25.2,00.0,35.3,27.7,18.0,0000.0,0010.75,0001.45,0000.26
2021-10-27 04:24:00,,0819.0,5.01,0.00,25.9,25.1,00.0,35.3,27.7,18.0,0000.0,0010.81,0001.46,0000.29
2021-10-27 04:25:00,,0819.0,5.00,0.00,25.9,25.1,00.0,35.2,27.6,18.0,0000.0,0010.41,0001.47,0000.31
2021-10-27 04:26:00,,0819.0,4.99,0.00,25.9,25.0,00.0,35.2,27.5,18.1,0000.0,0009.97,0001.48,0000.33
2021-10-27 04:27:00,,0818.9,5.00,0.00,25.8,25.0,00.0,35.2,27.5,18.1,0000.0,0010.18,0001.43,0000.34
2021-10-27 04:28:00,,0818.9,5.00,0.00,25.8,25.0,00.0,35.2,27.5,18.1,0000.0,0009.82,0001.39,0000.35
2021-10-27 04:29:00,,0818.9,5.00,0.00,25.8,25.0,00.0,35.1,27.5,18.2,0000.0,0009.08,0001.44,0000.36
2021-10-27 04:30:00,,0818.9,4.99,0.00,25.7,24.9,00.0,35.1,27.4,18.2,0000.0,0009.14,0001.42,0000.38
2021-10-27 04:31:00,,0818.9,5.01,0.00,25.7,24.9,00.0,35.1,27.4,18.2,0000.0,0009.33,0001.44,0000.39
2021-10-27 04:32:00,,0818.9,5.00,0.00,25.7,24.9,00.0,35.1,27.4,18.2,0000.0,0009.40,0001.45,0000.39
2021-10-27 04:33:00,,0818.9,5.00,0.00,25.7,24.8,00.0,35.0,27.4,18.2,0000.0,0008.98,0001.46,0000.40
2021-10-27 04:34:00,,0818.9,5.01,0.00,25.6,24.8,00.0,35.0,27.3,18.2,0000.0,0008.65,0001.50,0000.41
2021-10-27 04:35:00,,0818.9,5.00,0.00,25.6,24.8,00.0,35.0,27.3,18.2,0000.0,0008.99,0001.52,0000.41
2021-10-27 04:36:00,,0819.0,4.99,0.00,25.6,24.8,00.0,35.0,27.3,18.3,0000.0,0009.37,0001.45,0000.41
2021-10-27 04:37:00,,0819.0,5.00,0.00,25.6,24.8,00.0,34.9,27.3,18.3,0000.0,0009.04,0001.40,0000.40
2021-10-27 04:38:00,,0819.0,5.00,0.00,25.6,24.7,00.0,34.9,27.3,18.3,0000.0,0008.94,0001.42,0000.41
2021-10-27 04:39:00,,0818.9,5.00,0.00,25.5,24.7,00.0,34.9,27.2,18.4,0000.0,0009.57,0001.43,0000.41
2021-10-27 04:40:00,,0819.0,5.01,0.00,25.5,24.7,00.0,34.9,27.2,18.4,0000.0,0009.66,0001.40,0000.41
2021-10-27 04:41:00,,0819.0,5.00,0.00,25.5,24.7,00.0,34.8,27.2,18.4,0000.0,0009.79,0001.37,0000.41
2021-10-27 04:42:00,,0818.9,4.99,0.00,25.5,24.7,00.0,34.8,27.2,18.5,0000.0,0010.20,0001.36,0000.41
2021-10-27 04:43:00,,0819.0,4.99,0.00,25.5,24.6,00.0,34.8,27.2,18.5,0000.0,0010.85,0001.41,0000.42
2021-10-27 04:44:00,,0819.0,5.00,0.00,25.4,24.6,00.0,34.8,27.1,18.5,0000.0,0010.66,0001.47,0000.45
2021-10-27 04:45:00,,0819.1,5.01,0.00,25.4,24.6,00.0,34.7,27.1,18.5,0000.0,0010.61,0001.45,0000.46
2021-10-27 04:46:00,,0819.1,5.00,0.00,25.4,24.6,00.0,34.7,27.1,18.5,0000.0,0010.05,0001.49,0000.47
2021-10-27 04:47:00,,0819.0,5.01,0.00,25.4,24.6,00.0,34.7,27.1,18.6,0000.0,0009.64,0001.51,0000.48
2021-10-27 04:48:00,,0819.0,4.99,0.00,25.3,24.5,00.0,34.7,27.0,18.6,0000.0,0009.53,0001.50,0000.49
2021-10-27 04:49:00,,0819.0,5.01,0.00,25.3,24.5,00.0,34.7,27.0,18.6,0000.0,0008.91,0001.50,0000.50
2021-10-27 04:50:00,,0819.0,4.98,0.00,25.3,24.5,00.0,34.6,27.0,18.6,0000.0,0008.87,0001.51,0000.51
2021-10-27 04:51:00,,0819.0,5.00,0.00,25.3,24.5,00.0,34.6,27.0,18.6,0000.0,0008.59,0001.51,0000.52
2021-10-27 04:52:00,,0819.0,5.01,0.00,25.3,24.5,00.0,34.6,27.0,18.6,0000.0,0008.74,0001.58,0000.53
2021-10-27 04:53:00,,0819.0,4.99,0.00,25.3,24.5,00.0,34.6,27.0,18.6,0000.0,0008.77,0001.65,0000.53
2021-10-27 04:54:00,,0819.0,5.01,0.00,25.3,24.5,00.0,34.6,27.0,18.6,0000.0,0008.20,0001.63,0000.53
2021-10-27 04:55:00,,0819.0,5.00,0.00,25.2,24.4,00.0,34.5,27.0,18.6,0000.0,0008.77,0001.60,0000.53
2021-10-27 04:56:00,,0819.1,5.00,0.00,25.2,24.4,00.0,34.5,27.0,18.6,0000.0,0009.73,0001.64,0000.51
2021-10-27 04:57:00,,0819.1,5.00,0.00,25.2,24.4,00.0,34.5,27.0,18.6,0000.0,0009.95,0001.64,0000.48
2021-10-27 04:58:00,,0819.1,5.00,0.00,25.2,24.4,00.0,34.5,27.0,18.6,0000.0,0010.06,0001.70,0000.47
2021-10-27 04:59:00,,0819.1,4.98,0.00,25.2,24.4,00.0,34.5,27.0,18.6,0000.0,0010.45,0001.75,0000.48
